Norfolk, NE

7:05 AM CST on November 22, 2017 (GMT -0600)
Stefan Memorial

Weather History for KOFK - August, 2013

Change the Weather History Date:

Saturday, August 31, 2013

  Actual Average Record
Temperature  
Mean Temperature 79 °F 70 °F  
Max Temperature 91 °F 82 °F 102 °F (1922)
Min Temperature 67 °F 58 °F 40 °F (1967)
Degree Days  
Heating Degree Days 0 1  
Month to date heating degree days 3 8  
Since 1 June heating degree days 58 46  
Since 1 July heating degree days 16 16  
Cooling Degree Days 14 6  
Month to date cooling degree days 286 255  
Year to date cooling degree days 824 816  
Since 1 June cooling degree days 760 755  
Growing Degree Days 30 (Base 50)    
Moisture  
Dew Point 67 °F    
Average Humidity 69    
Maximum Humidity 97    
Minimum Humidity 41    
Precipitation  
Precipitation 0.00 in 0.10 in 1.34 in (2014)
Month to date precipitation 3.58 3.25  
Year to date precipitation 18.41 20.53  
Snow  
Snow 0.00 in 0.00 in - ()
Month to date snowfall 0.0 0.0  
Since 1 July snowfall 0.0 0.0  
Snow Depth 0.00 in    
Sea Level Pressure  
Sea Level Pressure 29.83 in    
Wind  
Wind Speed 5 mph (South)    
Max Wind Speed 22 mph    
Max Gust Speed 28 mph    
Visibility 10 miles    
Events      
T = Trace of Precipitation, MM = Missing Value Source: NWS Daily Summary

Daily Weather History Graph

Daily Weather History Graph

Search for Another Location

Airport or City:

Trip Planner

Search our weather history database for the weather conditions in past years. The results will help you decide how hot, cold, wet, or windy it might be!

Date:

Astronomy

Aug. 31, 2013 Rise Set
Actual Time 6:54 AM CDT 8:04 PM CDT
Civil Twilight 6:25 AM CDT 8:33 PM CDT
Nautical Twilight 5:51 AM CDT 9:07 PM CDT
Astronomical Twilight 5:15 AM CDT 9:43 PM CDT
Moon 2:21 AM CDT (8/31) 5:06 PM CDT (8/31)
Length of Visible Light 14h 07m
Length of Day
13h 09m
Waning Crescent, 21% of the Moon is Illuminated
Aug 31
Waning Crescent
Sep 5
New
Sep 12
First Quarter
Sep 19
Full
Sep 26
Last Quarter

Hourly Weather History & Observations

Time (CDT) Temp. Heat Index Dew Point Humidity Pressure Visibility Wind Dir Wind Speed Gust Speed Precip Events Conditions
12:56 AM 73.9 °F - 70.0 °F 87% 29.89 in 10.0 mi WNW 5.8 mph 31.1 mph N/A   Partly Cloudy
1:56 AM 71.1 °F - 69.1 °F 93% 29.88 in 10.0 mi WSW 3.5 mph - N/A   Clear
2:56 AM 72.0 °F - 68.0 °F 87% 29.85 in 10.0 mi East 4.6 mph - N/A   Clear
3:56 AM 71.1 °F - 68.0 °F 90% 29.83 in 10.0 mi SSE 8.1 mph - N/A   Clear
4:56 AM 71.1 °F - 69.1 °F 93% 29.84 in 10.0 mi ENE 4.6 mph - N/A   Clear
5:56 AM 70.0 °F - 68.0 °F 93% 29.85 in 9.0 mi Calm Calm - N/A   Clear
6:56 AM 69.1 °F - 66.0 °F 90% 29.86 in 9.0 mi SE 4.6 mph - N/A   Clear
7:56 AM 70.0 °F - 66.0 °F 87% 29.87 in 10.0 mi SSW 4.6 mph - N/A   Clear
8:56 AM 73.9 °F - 66.9 °F 79% 29.88 in 10.0 mi Calm Calm - N/A   Clear
9:56 AM 79.0 °F - 66.9 °F 66% 29.87 in 10.0 mi Variable 3.5 mph - N/A   Clear
10:56 AM 84.0 °F 85.8 °F 64.9 °F 53% 29.87 in 10.0 mi Variable 4.6 mph - N/A   Clear
11:56 AM 84.9 °F 86.1 °F 64.0 °F 49% 29.85 in 10.0 mi South 3.5 mph - N/A   Clear
12:56 PM 87.1 °F 89.2 °F 66.0 °F 49% 29.83 in 10.0 mi Variable 4.6 mph - N/A   Clear
1:56 PM 90.0 °F 91.7 °F 64.9 °F 43% 29.81 in 10.0 mi South 5.8 mph - N/A   Clear
2:56 PM 90.0 °F 91.7 °F 64.9 °F 43% 29.81 in 10.0 mi SSW 9.2 mph - N/A   Clear
3:56 PM 91.0 °F 93.8 °F 66.0 °F 44% 29.79 in 10.0 mi SW 9.2 mph - N/A   Clear
4:56 PM 91.0 °F 93.8 °F 66.0 °F 44% 29.78 in 10.0 mi SW 10.4 mph - N/A   Clear
5:56 PM 91.0 °F 93.0 °F 64.9 °F 42% 29.76 in 10.0 mi SSW 8.1 mph - N/A   Clear
6:56 PM 88.0 °F 91.4 °F 68.0 °F 51% 29.77 in 10.0 mi SW 4.6 mph - N/A   Clear
7:56 PM 81.0 °F 84.9 °F 71.1 °F 72% 29.77 in 10.0 mi South 3.5 mph - N/A   Clear
8:56 PM 73.9 °F - 70.0 °F 87% 29.79 in 10.0 mi South 3.5 mph - N/A   Clear
9:56 PM 73.9 °F - 69.1 °F 85% 29.80 in 10.0 mi Calm Calm - N/A   Clear
10:56 PM 73.9 °F - 69.1 °F 85% 29.79 in 10.0 mi Calm Calm - N/A   Clear
11:56 PM 73.9 °F - 69.1 °F 85% 29.77 in 10.0 mi Calm Calm - N/A   Clear